Location: Exeidioux
(45.6312°N, 1.6819°E)
Time: 20:23:14
(UTC+00:00)

CZ-4 R/B - Pass Details

Date: 03 March 2021
Orbit: 532 x 597 km, 97.7° (Epoch: 12 April)

Event Time Altitude Azimuth Distance (km) Brightness Sun altitude
Rises 19:38:26 0° 210° (SSW) 2,668 5.1 -20.9°
Reaches altitude 10° 19:41:24 10° 236° (WSW) 1,789 4.5 -21.4°
Maximum altitude 19:43:30 14° 270° (W) 1,550 4.6 -21.7°
Drops below altitude 10° 19:45:38 10° 303° (WNW) 1,810 5.0 -22.1°
Sets 19:48:40 0° 329° (NNW) 2,721 5.5 -22.6°
